EW7664 Weather Reports


time (UTC)temp
C
wind
direction
speed
KPH
gust
KPH
rain 1hr
cm
rain 24hr
cm
rain mn
cm
humidity
%
barometer
mb
20260510033042 11 211 0.0 0.0 0.00 0.00 0.00 66 1008.3
20260510032542 12 211 0.0 0.0 0.00 0.00 0.00 66 1008.3
20260510031542 12 211 0.0 0.0 0.00 0.00 0.00 66 1008.3
20260510031042 12 211 0.0 0.0 0.00 0.00 0.00 66 1008.2
20260510030542 12 211 0.0 0.0 0.00 0.00 0.00 66 1008.1
20260510030045 12 211 0.0 0.0 0.00 0.00 0.00 66 1008.1
20260510025044 12 211 0.0 0.0 0.00 0.00 0.00 66 1008.0
20260510024545 12 211 0.0 0.0 0.00 0.00 0.00 66 1007.9
20260510024045 12 211 0.0 0.0 0.00 0.00 0.00 66 1007.9
20260510023545 12 211 0.0 0.0 0.00 0.00 0.00 66 1007.9
20260510023042 12 211 0.0 0.0 0.00 0.00 0.00 66 1007.7
20260510022542 12 211 0.0 0.0 0.00 0.00 0.00 66 1007.8
20260510022042 12 211 0.0 0.0 0.00 0.00 0.00 66 1007.7
20260510021541 12 211 0.0 0.0 0.00 0.00 0.00 66 1007.6
20260510021045 12 211 0.0 0.0 0.00 0.00 0.00 65 1007.7
20260510020541 13 211 0.0 0.0 0.00 0.00 0.00 65 1007.5
20260510015542 13 211 0.0 0.0 0.00 0.00 0.00 65 1007.4
20260510015043 13 211 0.0 0.0 0.00 0.00 0.00 65 1007.4
20260510014541 13 211 0.0 0.0 0.00 0.00 0.00 65 1007.3
20260510014044 13 211 0.0 0.0 0.00 0.00 0.00 65 1007.2
20260510013542 13 211 0.0 0.0 0.00 0.00 0.00 64 1007.2
20260510013044 13 211 0.0 0.0 0.00 0.00 0.00 64 1007.2
20260510012542 14 211 0.0 0.0 0.00 0.00 0.00 64 1007.2
20260510012045 14 211 0.0 0.0 0.00 0.00 0.00 64 1007.1
20260510011542 14 211 0.0 0.0 0.00 0.00 0.00 64 1007.0
20260510011041 14 211 0.0 0.0 0.00 0.00 0.00 63 1006.9
20260510010541 15 211 0.0 0.0 0.00 0.00 0.00 63 1006.9
20260510010041 15 211 0.0 0.0 0.00 0.00 0.00 62 1006.7
20260510005542 15 211 0.0 0.0 0.00 0.00 0.00 62 1006.6
20260510004042 16 211 0.0 0.0 0.00 0.00 0.00 60 1006.3
20260510003541 16 211 0.0 0.0 0.00 0.00 0.00 59 1006.2
20260510003042 16 211 0.0 0.0 0.00 0.00 0.00 58 1006.1
20260510002543 16 211 0.0 0.0 0.00 0.00 0.00 57 1006.2
20260510002041 17 211 0.0 0.0 0.00 0.00 0.00 57 1006.2
20260510001042 17 211 0.0 0.0 0.00 0.00 0.00 55 1006.2
20260510000542 17 211 0.0 0.0 0.00 0.00 0.00 54 1006.2
20260510000041 17 211 0.0 0.0 0.00 0.00 0.00 53 1006.2
20260509235542 18 211 0.0 0.0 0.00 0.00 0.00 52 1006.2
20260509235042 18 211 0.0 0.0 0.00 0.00 0.00 52 1006.2
20260509234542 18 211 0.0 0.0 0.00 0.00 0.00 51 1006.1
20260509234042 18 211 0.0 0.0 0.00 0.00 0.00 50 1006.1
20260509233541 18 211 0.0 0.0 0.00 0.00 0.00 50 1006.1
20260509233042 18 211 0.0 0.0 0.00 0.00 0.00 50 1006.1
20260509232542 19 211 0.0 0.0 0.00 0.00 0.00 49 1006.0
20260509232041 19 211 0.0 0.0 0.00 0.00 0.00 48 1005.9
20260509231541 19 211 0.0 0.0 0.00 0.00 0.00 48 1005.8
20260509231041 20 211 0.0 0.0 0.00 0.00 0.00 48 1005.9
20260509230042 20 211 0.0 0.0 0.00 0.00 0.00 47 1005.8
20260509225541 20 211 0.0 0.0 0.00 0.00 0.00 47 1005.8
20260509224542 21 208 0.0 0.0 0.00 0.00 0.00 46 1005.7
20260509224042 21 208 0.0 0.0 0.00 0.00 0.00 43 1005.7
20260509223041 21 208 0.0 0.0 0.00 0.00 0.00 47 1005.8
20260509222542 21 208 0.0 0.0 0.00 0.00 0.00 43 1005.8
20260509222042 21 208 0.0 0.0 0.00 0.00 0.00 46 1005.9
20260509221541 21 208 0.0 0.0 0.00 0.00 0.00 45 1005.8
20260509221041 21 208 0.0 0.0 0.00 0.00 0.00 44 1005.8
20260509220542 21 208 0.0 0.0 0.00 0.00 0.00 42 1005.8
20260509215541 21 208 0.0 0.0 0.00 0.00 0.00 39 1005.8
20260509215042 21 208 0.0 0.0 0.00 0.00 0.00 41 1005.8
20260509214543 21 208 0.0 0.0 0.00 0.00 0.00 41 1005.7
20260509214041 21 208 0.0 0.0 0.00 0.00 0.00 39 1005.7
20260509213541 21 208 0.0 0.0 0.00 0.00 0.00 39 1005.7
20260509213042 21 208 0.0 0.0 0.00 0.00 0.00 40 1005.7
20260509212541 22 208 0.0 0.0 0.00 0.00 0.00 39 1005.7
20260509212042 22 208 0.0 0.0 0.00 0.00 0.00 40 1005.7
20260509211542 22 208 0.0 0.0 0.00 0.00 0.00 38 1005.7
20260509211042 22 208 0.0 1.6 0.00 0.00 0.00 41 1005.6
20260509210042 22 200 0.0 0.0 0.00 0.00 0.00 40 1005.6
20260509205541 22 201 0.0 0.0 0.00 0.00 0.00 40 1005.5
20260509205041 21 199 0.0 0.0 0.00 0.00 0.00 40 1005.6
20260509204041 21 199 0.0 3.2 0.00 0.00 0.00 40 1005.5
20260509203543 21 221 0.0 0.0 0.00 0.00 0.00 40 1005.5
20260509203041 21 221 0.0 0.0 0.00 0.00 0.00 40 1005.5
20260509202541 21 221 0.0 0.0 0.00 0.00 0.00 41 1005.5
20260509202041 21 221 0.0 0.0 0.00 0.00 0.00 40 1005.6
20260509201541 21 221 0.0 0.0 0.00 0.00 0.00 41 1005.6
20260509201041 21 221 0.0 0.0 0.00 0.00 0.00 37 1005.6
20260509200541 21 223 0.0 0.0 0.00 0.00 0.00 40 1005.5
20260509200041 21 222 0.0 0.0 0.00 0.00 0.00 40 1005.7
20260509195542 21 234 0.0 0.0 0.00 0.00 0.00 39 1005.8
20260509195041 22 234 0.0 0.0 0.00 0.00 0.00 39 1005.8
20260509194542 22 234 0.0 0.0 0.00 0.00 0.00 35 1005.8
20260509193543 21 212 0.0 6.4 0.00 0.00 0.00 39 1006.0
20260509193041 21 227 1.6 9.7 0.00 0.00 0.00 38 1005.9
20260509192542 21 153 0.0 8.0 0.00 0.00 0.00 39 1005.9
20260509192043 21 140 0.0 1.6 0.00 0.00 0.00 38 1005.8
20260509191542 21 140 0.0 8.0 0.00 0.00 0.00 39 1005.9
20260509190541 21 116 0.0 9.7 0.00 0.00 0.00 39 1006.0
20260509185041 20 111 0.0 6.4 0.00 0.00 0.00 39 1006.2
20260509184543 20 134 1.6 11.3 0.00 0.00 0.00 39 1006.3
20260509184041 20 131 1.6 11.3 0.00 0.00 0.00 39 1006.5
20260509183542 20 192 0.0 0.0 0.00 0.00 0.00 41 1006.5
20260509183042 20 192 0.0 0.0 0.00 0.00 0.00 42 1006.6
20260509182042 20 131 1.6 14.5 0.00 0.00 0.00 40 1006.7
20260509181542 20 109 0.0 4.8 0.00 0.00 0.00 40 1006.9
20260509181041 20 107 1.6 9.7 0.00 0.00 0.00 40 1006.9
20260509180042 20 93 0.0 8.0 0.00 0.00 0.00 39 1006.9
20260509175541 20 144 1.6 12.9 0.00 0.00 0.00 40 1007.1
20260509175041 20 104 1.6 14.5 0.00 0.00 0.00 39 1007.1
20260509174541 20 89 1.6 14.5 0.00 0.00 0.00 38 1007.2
20260509174042 20 92 0.0 6.4 0.00 0.00 0.00 40 1007.3
20260509173542 19 43 0.0 11.3 0.00 0.00 0.00 40 1007.4
20260509173041 19 92 0.0 11.3 0.00 0.00 0.00 39 1007.5
20260509172541 18 148 0.0 3.2 0.00 0.00 0.00 42 1007.5
20260509171541 18 129 0.0 4.8 0.00 0.00 0.00 40 1007.7
20260509170542 19 117 0.0 0.0 0.00 0.00 0.00 41 1007.9
20260509170041 19 117 0.0 0.0 0.00 0.00 0.00 40 1008.0
20260509165541 19 116 0.0 0.0 0.00 0.00 0.00 40 1008.0
20260509165041 19 116 0.0 6.4 0.00 0.00 0.00 40 1008.1
20260509164541 19 103 0.0 6.4 0.00 0.00 0.00 38 1008.2
20260509164041 20 82 0.0 9.7 0.00 0.00 0.00 38 1008.0
20260509163542 20 111 0.0 4.8 0.00 0.00 0.00 35 1008.0
20260509163041 21 5 0.0 4.8 0.00 0.00 0.00 37 1007.8
20260509162541 21 34 0.0 0.0 0.00 0.00 0.00 33 1007.8
20260509161541 21 34 0.0 0.0 0.00 0.00 0.00 33 1007.7
20260509161041 21 32 0.0 3.2 0.00 0.00 0.00 35 1007.7
20260509160541 21 36 0.0 8.0 0.00 0.00 0.00 32 1007.4
20260509160041 21 38 0.0 8.0 0.00 0.00 0.00 32 1007.5
20260509155541 21 57 0.0 0.0 0.00 0.00 0.00 34 1007.6
20260509155041 21 76 0.0 0.0 0.00 0.00 0.00 33 1007.6
20260509154541 21 75 0.0 0.0 0.00 0.00 0.00 32 1007.6
20260509154042 21 75 0.0 0.0 0.00 0.00 0.00 34 1007.7
20260509153541 21 75 0.0 0.0 0.00 0.00 0.00 35 1007.5
20260509152541 20 75 0.0 0.0 0.00 0.00 0.00 36 1007.6
20260509152041 20 76 0.0 0.0 0.00 0.00 0.00 35 1007.8
20260509151042 19 77 0.0 0.0 0.00 0.00 0.00 35 1008.0
20260509150541 20 59 0.0 0.0 0.00 0.00 0.00 35 1008.1
20260509150041 20 63 0.0 0.0 0.00 0.00 0.00 32 1008.0
20260509145541 20 35 0.0 0.0 0.00 0.00 0.00 33 1008.0
20260509145041 19 35 0.0 0.0 0.00 0.00 0.00 34 1008.0
20260509144541 19 33 0.0 0.0 0.00 0.00 0.00 33 1008.0
20260509143542 18 21 0.0 0.0 0.00 0.00 0.00 34 1008.1
20260509143042 18 22 0.0 0.0 0.00 0.00 0.00 35 1008.2
20260509142542 17 17 0.0 0.0 0.00 0.00 0.00 37 1008.4
20260509142041 17 17 0.0 0.0 0.00 0.00 0.00 37 1008.4
20260509141541 16 17 0.0 0.0 0.00 0.00 0.00 38 1008.5
20260509141041 16 355 0.0 0.0 0.00 0.00 0.00 41 1008.6
20260509140541 16 355 0.0 0.0 0.00 0.00 0.00 42 1008.5
20260509140042 16 355 0.0 0.0 0.00 0.00 0.00 40 1008.6
20260509135541 16 355 0.0 0.0 0.00 0.00 0.00 43 1008.6
20260509135042 15 355 0.0 0.0 0.00 0.00 0.00 49 1008.7
20260509134541 15 355 0.0 0.0 0.00 0.00 0.00 49 1008.7
20260509133542 15 355 0.0 0.0 0.00 0.00 0.00 52 1008.5
20260509133041 14 355 0.0 0.0 0.00 0.00 0.00 52 1008.4
20260509132041 -17 0.0 0.0 0.00 0.00 0.00 1008.2
20260509131541 -17 0.0 0.0 0.00 0.00 0.00 1008.3
20260509130041 -17 0.0 0.0 0.00 0.00 0.00 1008.6
20260509125541 -17 0.0 0.0 0.00 0.00 0.00 1008.6
20260509125041 -17 0.0 0.0 0.00 0.00 0.00 1008.7
20260509124542 -17 0.0 0.0 0.00 0.00 0.00 1008.7
20260509124041 -17 0.0 0.0 0.00 0.00 0.00 1008.7
20260509123542 -17 0.0 0.0 0.00 0.00 0.00 1008.9
20260509123041 -17 0.0 0.0 0.00 0.00 0.00 1008.9
20260509122541 -17 0.0 0.0 0.00 0.00 0.00 1008.8
20260509122041 -17 0.0 0.0 0.00 0.00 0.00 1008.7
20260509121542 -17 0.0 0.0 0.00 0.00 0.00 1008.6
20260509121041 -17 0.0 0.0 0.00 0.00 0.00 1008.8
20260509120541 -17 0.0 0.0 0.00 0.00 0.00 1008.7
20260509115541 12 355 0.0 0.0 0.00 0.00 0.00 56 1008.5
20260509115042 12 355 0.0 0.0 0.00 0.00 0.00 56 1008.5
20260509114042 12 355 0.0 0.0 0.00 0.00 0.00 55 1008.4
20260509113041 12 355 0.0 0.0 0.00 0.00 0.00 55 1008.3
20260509112041 12 355 0.0 0.0 0.00 0.00 0.00 54 1008.3
20260509111541 12 355 0.0 0.0 0.00 0.00 0.00 54 1008.3
20260509111041 12 355 0.0 0.0 0.00 0.00 0.00 54 1008.1
20260509110541 12 355 0.0 0.0 0.00 0.00 0.00 52 1008.2
20260509105541 12 355 0.0 0.0 0.00 0.00 0.00 52 1008.0
20260509105041 12 355 0.0 0.0 0.00 0.00 0.00 52 1008.0
20260509104541 12 355 0.0 0.0 0.00 0.00 0.00 51 1008.0
20260509103541 12 355 0.0 0.0 0.00 0.00 0.00 51 1008.0
20260509103042 12 355 0.0 0.0 0.00 0.00 0.00 50 1007.9
20260509102541 12 355 0.0 0.0 0.00 0.00 0.00 51 1008.0
20260509102041 12 355 0.0 0.0 0.00 0.00 0.00 51 1008.0
20260509101541 12 355 0.0 0.0 0.00 0.00 0.00 51 1008.0
20260509101042 12 355 0.0 0.0 0.00 0.00 0.00 50 1008.0
20260509100540 13 355 0.0 0.0 0.00 0.00 0.00 50 1008.0
20260509100041 13 355 0.0 0.0 0.00 0.00 0.00 48 1008.0
20260509095541 13 355 0.0 0.0 0.00 0.00 0.00 47 1008.0
20260509095042 13 355 0.0 0.0 0.00 0.00 0.00 48 1008.0
20260509094542 13 355 0.0 0.0 0.00 0.00 0.00 48 1008.1
20260509094041 13 355 0.0 0.0 0.00 0.00 0.00 46 1008.0
20260509093541 13 355 0.0 0.0 0.00 0.00 0.00 45 1007.9
20260509092541 13 355 0.0 0.0 0.00 0.00 0.00 44 1007.8
20260509092041 13 355 0.0 0.0 0.00 0.00 0.00 42 1007.9
20260509091541 13 355 0.0 0.0 0.00 0.00 0.00 43 1008.0
20260509091041 13 355 0.0 0.0 0.00 0.00 0.00 45 1008.0
20260509090541 13 355 0.0 0.0 0.00 0.00 0.00 45 1008.0
20260509090041 14 355 0.0 0.0 0.00 0.00 0.00 45 1008.1
20260509085541 14 355 0.0 0.0 0.00 0.00 0.00 44 1008.1
20260509085040 14 355 0.0 0.0 0.00 0.00 0.00 44 1008.1
20260509084541 14 355 0.0 0.0 0.00 0.00 0.00 44 1008.1
20260509084041 14 355 0.0 0.0 0.00 0.00 0.00 45 1008.1
20260509083041 14 355 0.0 0.0 0.00 0.00 0.00 43 1008.3
20260509082541 14 355 0.0 0.0 0.00 0.00 0.00 42 1008.3
20260509082041 14 355 0.0 0.0 0.00 0.00 0.00 41 1008.4
20260509081541 13 355 0.0 0.0 0.00 0.00 0.00 42 1008.2
20260509081042 13 355 0.0 0.0 0.00 0.00 0.00 44 1008.3
20260509080541 13 355 0.0 0.0 0.00 0.00 0.00 43 1008.4
20260509075542 13 355 0.0 0.0 0.00 0.00 0.00 48 1008.6
20260509075041 13 355 0.0 0.0 0.00 0.00 0.00 46 1008.5
20260509074542 13 355 0.0 0.0 0.00 0.00 0.00 47 1008.5
20260509074041 12 355 0.0 0.0 0.00 0.00 0.00 47 1008.6
20260509073541 12 355 0.0 0.0 0.00 0.00 0.00 49 1008.6
20260509073041 12 355 0.0 0.0 0.00 0.00 0.00 51 1008.6
20260509072541 12 355 0.0 0.0 0.00 0.00 0.00 52 1008.6
20260509072041 12 355 0.0 0.0 0.00 0.00 0.00 53 1008.6
20260509071541 12 355 0.0 0.0 0.00 0.00 0.00 54 1008.6
20260509071042 12 355 0.0 0.0 0.00 0.00 0.00 53 1008.6
20260509070541 12 355 0.0 0.0 0.00 0.00 0.00 53 1008.6
20260509065541 12 355 0.0 0.0 0.00 0.00 0.00 54 1008.8
20260509065041 12 355 0.0 0.0 0.00 0.00 0.00 54 1008.9
20260509064041 12 355 0.0 0.0 0.00 0.00 0.00 52 1009.0
20260509063541 12 355 0.0 0.0 0.00 0.00 0.00 53 1009.0
20260509063041 12 355 0.0 0.0 0.00 0.00 0.00 54 1009.1
20260509062541 12 355 0.0 0.0 0.00 0.00 0.00 54 1009.1
20260509062042 12 355 0.0 0.0 0.00 0.00 0.00 55 1009.2
20260509061541 11 355 0.0 0.0 0.00 0.00 0.00 54 1009.1
20260509055542 12 355 0.0 0.0 0.00 0.00 0.00 53 1009.4
20260509055041 12 355 0.0 0.0 0.00 0.00 0.00 53 1009.3
20260509054541 12 355 0.0 0.0 0.00 0.00 0.00 55 1009.4
20260509054040 12 355 0.0 0.0 0.00 0.00 0.00 52 1009.3
20260509053540 12 355 0.0 0.0 0.00 0.00 0.00 51 1009.3
20260509052541 12 355 0.0 0.0 0.00 0.00 0.00 53 1009.4
20260509052041 12 355 0.0 0.0 0.00 0.00 0.00 53 1009.4
20260509051541 12 355 0.0 0.0 0.00 0.00 0.00 53 1009.4
20260509051042 12 355 0.0 0.0 0.00 0.00 0.00 53 1009.4
20260509050540 12 355 0.0 0.0 0.00 0.00 0.00 51 1009.5
20260509050041 12 355 0.0 0.0 0.00 0.00 0.00 50 1009.2
20260509045541 12 355 0.0 0.0 0.00 0.00 0.00 49 1009.3
20260509045041 12 355 0.0 0.0 0.00 0.00 0.00 50 1009.3
20260509044540 12 355 0.0 0.0 0.00 0.00 0.00 50 1009.4
20260509044041 12 355 0.0 0.0 0.00 0.00 0.00 50 1009.4
20260509042540 13 355 0.0 0.0 0.00 0.00 0.00 50 1009.4
20260509042041 13 355 0.0 0.0 0.00 0.00 0.00 49 1009.4
20260509041540 13 355 0.0 0.0 0.00 0.00 0.00 48 1009.3
20260509041040 13 355 0.0 0.0 0.00 0.00 0.00 48 1009.3
20260509040540 13 355 0.0 0.0 0.00 0.00 0.00 47 1009.3
20260509040040 13 355 0.0 0.0 0.00 0.00 0.00 46 1009.4
20260509035541 13 355 0.0 0.0 0.00 0.00 0.00 46 1009.5
20260509035041 13 355 0.0 0.0 0.00 0.00 0.00 47 1009.5
20260509034042 13 355 0.0 0.0 0.00 0.00 0.00 46 1009.4